Location: Newark
(44.0160°N, 116.9215°W)
Time: 04:53:47
(UTC+00:00)

Envisat - Pass Details

Date: 27 November 2019
Orbit: 764 x 766 km, 98.1° (Epoch: 12 December)

Event Time Altitude Azimuth Distance (km) Brightness Sun altitude
Rises 02:15:47 0° 183° (S) 3,218 6.4 -21.6°
Reaches altitude 10° 02:18:10 10° 190° (S) 2,296 5.7 -22.0°
Maximum altitude 02:22:59 44° 262° (W) 1,059 4.2 -22.9°
Drops below altitude 10° 02:27:51 10° 334° (NNW) 2,311 5.7 -23.7°
Sets 02:30:16 0° 341° (NNW) 3,242 6.4 -24.2°
